| time (UTC) | temp F | wind direction | speed MPH | gust MPH | rain 1hr in | rain 24hr in | rain mn in | humidity % | barometer mb |
| 20260504014131 | 35 | 297 | 0.0 | 2.0 | 0.00 | 0.00 | 0.00 | 86 | 972.0 |
| 20260504013231 | 35 | 0 | 0.0 | 0.0 | 0.00 | 0.00 | 0.00 | 86 | 972.1 |
| 20260504012331 | 35 | 156 | 0.0 | 1.0 | 0.00 | 0.00 | 0.00 | 85 | 972.3 |
| 20260504011431 | 35 | 170 | 2.0 | 2.0 | 0.00 | 0.00 | 0.00 | 86 | 972.4 |
| 20260504010531 | 36 | 175 | 2.0 | 4.0 | 0.00 | 0.00 | 0.00 | 86 | 972.4 |
| 20260504004731 | 36 | 178 | 4.0 | 4.0 | 0.00 | 0.00 | 0.00 | 86 | 972.7 |
| 20260504003831 | 36 | 181 | 4.0 | 5.0 | 0.00 | 0.00 | 0.00 | 86 | 972.7 |
| 20260504002931 | 36 | 178 | 4.0 | 4.0 | 0.00 | 0.00 | 0.00 | 87 | 972.9 |
| 20260504002031 | 35 | 176 | 4.0 | 4.0 | 0.00 | 0.00 | 0.00 | 87 | 972.8 |
| 20260504001132 | 35 | 175 | 4.0 | 5.0 | 0.00 | 0.00 | 0.00 | 86 | 972.9 |
| 20260504000231 | 35 | 181 | 3.0 | 3.0 | 0.00 | 0.00 | 0.00 | 86 | 973.0 |
| 20260503235331 | 35 | 177 | 3.0 | 3.0 | 0.00 | 0.00 | 0.00 | 86 | 973.0 |
| 20260503234431 | 35 | 171 | 2.0 | 3.0 | 0.00 | 0.00 | 0.00 | 85 | 973.1 |
| 20260503233531 | 35 | 174 | 2.0 | 3.0 | 0.00 | 0.00 | 0.00 | 84 | 973.2 |
| 20260503232632 | 36 | 178 | 3.0 | 4.0 | 0.00 | 0.00 | 0.00 | 84 | 973.3 |
| 20260503230831 | 37 | 181 | 3.0 | 4.0 | 0.00 | 0.00 | 0.00 | 83 | 973.4 |
| 20260503225931 | 37 | 181 | 4.0 | 4.0 | 0.00 | 0.00 | 0.00 | 83 | 973.4 |
| 20260503225031 | 37 | 175 | 4.0 | 4.0 | 0.00 | 0.00 | 0.00 | 82 | 973.4 |
| 20260503224131 | 38 | 179 | 3.0 | 4.0 | 0.00 | 0.00 | 0.00 | 82 | 973.3 |
| 20260503223231 | 38 | 181 | 4.0 | 4.0 | 0.00 | 0.00 | 0.00 | 81 | 973.6 |
| 20260503222331 | 38 | 179 | 4.0 | 4.0 | 0.00 | 0.00 | 0.00 | 81 | 973.5 |
| 20260503221431 | 38 | 175 | 4.0 | 4.0 | 0.00 | 0.00 | 0.00 | 81 | 973.7 |
| 20260503215631 | 38 | 176 | 4.0 | 5.0 | 0.00 | 0.00 | 0.00 | 81 | 973.8 |
| 20260503214731 | 38 | 182 | 5.0 | 6.0 | 0.00 | 0.00 | 0.00 | 81 | 973.8 |
| 20260503213831 | 38 | 177 | 5.0 | 6.0 | 0.00 | 0.00 | 0.00 | 81 | 973.8 |
| 20260503212931 | 38 | 178 | 5.0 | 6.0 | 0.00 | 0.00 | 0.00 | 81 | 973.9 |
| 20260503212036 | 38 | 177 | 5.0 | 6.0 | 0.00 | 0.00 | 0.00 | 80 | 973.9 |
| 20260503205331 | 39 | 177 | 5.0 | 6.0 | 0.00 | 0.00 | 0.00 | 78 | 974.1 |
| 20260503204431 | 40 | 181 | 4.0 | 5.0 | 0.00 | 0.00 | 0.00 | 77 | 974.2 |
| 20260503202631 | 40 | 181 | 4.0 | 4.0 | 0.00 | 0.00 | 0.00 | 77 | 974.4 |
| 20260503195931 | 41 | 178 | 5.0 | 5.0 | 0.00 | 0.00 | 0.00 | 75 | 974.4 |
| 20260503195031 | 41 | 189 | 5.0 | 6.0 | 0.00 | 0.00 | 0.00 | 74 | 974.6 |
| 20260503193231 | 42 | 184 | 4.0 | 5.0 | 0.00 | 0.00 | 0.00 | 72 | 974.3 |
| 20260503192331 | 43 | 181 | 4.0 | 6.0 | 0.00 | 0.00 | 0.00 | 71 | 974.4 |
| 20260503191431 | 43 | 183 | 5.0 | 7.0 | 0.00 | 0.00 | 0.00 | 69 | 974.3 |
| 20260503190531 | 44 | 185 | 6.0 | 8.0 | 0.00 | 0.00 | 0.00 | 68 | 974.5 |
| 20260503185631 | 45 | 192 | 5.0 | 8.0 | 0.00 | 0.00 | 0.00 | 66 | 974.7 |
| 20260503184731 | 46 | 194 | 4.0 | 6.0 | 0.00 | 0.00 | 0.00 | 64 | 974.7 |
| 20260503183831 | 47 | 194 | 6.0 | 8.0 | 0.00 | 0.00 | 0.00 | 62 | 974.8 |
| 20260503182931 | 48 | 190 | 6.0 | 8.0 | 0.00 | 0.00 | 0.00 | 60 | 974.8 |
| 20260503181131 | 49 | 188 | 8.0 | 11.0 | 0.00 | 0.00 | 0.00 | 58 | 974.9 |
| 20260503180231 | 50 | 202 | 7.0 | 8.0 | 0.00 | 0.00 | 0.00 | 56 | 974.9 |
| 20260503175331 | 50 | 218 | 7.0 | 9.0 | 0.00 | 0.00 | 0.00 | 56 | 974.6 |
| 20260503174431 | 50 | 205 | 8.0 | 11.0 | 0.00 | 0.00 | 0.00 | 55 | 974.6 |
| 20260503173531 | 51 | 228 | 8.0 | 12.0 | 0.00 | 0.00 | 0.00 | 53 | 974.8 |
| 20260503171731 | 51 | 184 | 8.0 | 11.0 | 0.00 | 0.00 | 0.00 | 53 | 974.8 |
| 20260503150231 | 52 | 261 | 6.0 | 8.0 | 0.00 | 0.00 | 0.00 | 47 | 975.7 |
| 20260503130531 | 49 | 272 | 8.0 | 9.0 | 0.00 | 0.00 | 0.00 | 52 | 976.8 |
| 20260503090231 | 41 | 12 | 3.0 | 4.0 | 0.00 | 0.00 | 0.00 | 63 | 979.1 |
| 20260503080831 | 40 | 51 | 2.0 | 4.0 | 0.00 | 0.00 | 0.00 | 67 | 979.3 |
| 20260503072331 | 39 | 327 | 1.0 | 2.0 | 0.00 | 0.00 | 0.00 | 69 | 979.1 |
| 20260503071431 | 39 | 308 | 1.0 | 2.0 | 0.00 | 0.00 | 0.00 | 69 | 979.1 |
| 20260503070531 | 38 | 14 | 0.0 | 1.0 | 0.00 | 0.00 | 0.00 | 70 | 979.3 |
| 20260503060231 | 37 | 47 | 3.0 | 4.0 | 0.00 | 0.00 | 0.00 | 72 | 979.2 |
| 20260503054431 | 37 | 77 | 3.0 | 4.0 | 0.00 | 0.00 | 0.00 | 73 | 979.1 |
| 20260503053531 | 37 | 71 | 4.0 | 5.0 | 0.00 | 0.00 | 0.00 | 73 | 979.1 |
| 20260503052632 | 36 | 69 | 5.0 | 6.0 | 0.00 | 0.00 | 0.00 | 74 | 978.8 |
| 20260503051731 | 36 | 67 | 5.0 | 7.0 | 0.00 | 0.00 | 0.00 | 75 | 979.0 |
| 20260503050831 | 36 | 68 | 4.0 | 6.0 | 0.00 | 0.00 | 0.00 | 76 | 978.9 |
| 20260503045931 | 36 | 74 | 3.0 | 4.0 | 0.00 | 0.00 | 0.00 | 77 | 978.8 |
| 20260503045031 | 36 | 95 | 3.0 | 4.0 | 0.00 | 0.00 | 0.00 | 78 | 979.0 |
| 20260503044131 | 36 | 90 | 4.0 | 5.0 | 0.00 | 0.00 | 0.00 | 77 | 978.9 |
| 20260503043231 | 36 | 67 | 4.0 | 6.0 | 0.00 | 0.00 | 0.00 | 77 | 979.0 |
| 20260503042331 | 36 | 71 | 5.0 | 6.0 | 0.00 | 0.00 | 0.00 | 77 | 979.1 |
| 20260503041431 | 36 | 84 | 8.0 | 10.0 | 0.00 | 0.00 | 0.00 | 76 | 979.0 |
| 20260503040531 | 37 | 75 | 9.0 | 11.0 | 0.00 | 0.00 | 0.00 | 74 | 978.9 |
| 20260503035632 | 37 | 40 | 8.0 | 11.0 | 0.00 | 0.00 | 0.00 | 75 | 978.8 |
| 20260503033831 | 38 | 74 | 5.0 | 8.0 | 0.00 | 0.00 | 0.00 | 73 | 978.7 |
| 20260503032931 | 38 | 62 | 5.0 | 8.0 | 0.00 | 0.00 | 0.00 | 73 | 978.5 |
| 20260503032031 | 38 | 61 | 5.0 | 7.0 | 0.00 | 0.00 | 0.00 | 73 | 978.6 |
| 20260503031132 | 38 | 75 | 6.0 | 8.0 | 0.00 | 0.00 | 0.00 | 72 | 978.6 |
| 20260503030231 | 38 | 60 | 7.0 | 9.0 | 0.00 | 0.00 | 0.00 | 72 | 978.4 |
| 20260503025331 | 38 | 65 | 7.0 | 10.0 | 0.00 | 0.00 | 0.00 | 71 | 978.2 |
| 20260503024431 | 39 | 78 | 9.0 | 11.0 | 0.00 | 0.00 | 0.00 | 71 | 978.2 |
| 20260503023531 | 39 | 62 | 8.0 | 11.0 | 0.00 | 0.00 | 0.00 | 70 | 978.3 |
| 20260503022632 | 39 | 65 | 9.0 | 12.0 | 0.00 | 0.00 | 0.00 | 70 | 978.2 |
| 20260503021731 | 39 | 67 | 8.0 | 13.0 | 0.00 | 0.00 | 0.00 | 70 | 978.1 |
| 20260503020831 | 39 | 50 | 11.0 | 14.0 | 0.00 | 0.00 | 0.00 | 70 | 978.3 |